Station MCGM4 - 9099018 - Marquette C.G., MI Image indicating link to RSS feed of recent meteorological observations for station MCGM4


Conditions at MCGM4 as of
(11:18 pm EDT on 06/12/2024)
0318 GMT on 06/13/2024:
     

Click on the graph icon in the table below to see a time series plot of the last five days of that observation.

5-day plot - Wind Direction Wind Direction (WDIR):WSW ( 240 deg true )
5-day plot - Wind Speed Wind Speed (WSPD):1.5 m/s
5-day plot - Wind Gust Wind Gust (GST):2.6 m/s
5-day plot - Atmospheric Pressure Atmospheric Pressure (PRES):1003.8 mb
5-day plot - Wind Speed at 10 Meters Wind Speed at 10 meters (WSPD10M): 2 m/s
5-day plot - Wind Speed at 20 Meters Wind Speed at 20 meters (WSPD20M): 2 m/s
5-day plot -  Wind Speed, Wind Gust and Atmospheric Pressure Combined plot of Wind Speed, Gust, and Air Pressure
NOS Water Level Observation Network Water Level
Previous observations
TIME
(EDT)
5-day plot - Wind Direction
WDIR
 
5-day plot - Wind Speed
WSPD
m/s
5-day plot - Wind Gust
GST
m/s
5-day plot - Wave Height
WVHT
m
5-day plot - Dominant Wave Period
DPD
sec
5-day plot - Average Wave Period
APD
sec
5-day plot - Mean Wave Direction
MWD
 
5-day plot - Atmospheric Pressure
PRES
mb
5-day plot - Pressure Tendency
PTDY
mb
5-day plot - Air Temperature
ATMP
°C
5-day plot - Water Temperature
WTMP
°C
5-day plot - Dew Point
DEWP
°C
5-day plot - Salinity
SAL
psu
5-day plot - Visibility
VIS
km
5-day plot - Tide (above MLLW)
TIDE
m
2024-06-12 11:12 pmWSW 2.6 3.1----1003.6-------
2024-06-12 11:06 pmWNW 2.6 4.1----1003.3-------
2024-06-12 11:00 pmWSW 2.1 5.1----1003.3 +1.7 18.9- 15.7---
2024-06-12 10:54 pmWSW 3.6 7.7----1003.3- 18.9- 15.7---
2024-06-12 10:48 pmWSW 5.7 8.8----1002.8- 18.5- 15.0---
2024-06-12 10:42 pmWSW 5.1 9.8----1002.5- 19.8- 14.5---
2024-06-12 10:36 pmWSW 4.6 7.2----1002.1- 24.0- 11.3---
2024-06-12 10:30 pm SW 3.1 6.2----1001.4- 23.4- 11.2---
2024-06-12 10:24 pm SW 3.1 5.7----1001.4- 23.1- 11.1---
2024-06-12 10:18 pm SW 2.1 6.2----1001.3- 23.1- 11.0---
2024-06-12 10:12 pm SW 4.1 6.2----1001.6- 24.1- 11.1---
2024-06-12 10:06 pm SW 3.6 7.2----1001.8- 24.0- 11.1---
2024-06-12 10:00 pm SW 4.6 8.8------------
2024-06-12 09:54 pm SW 4.6 7.7------------
2024-06-12 09:48 pm SW 4.6 9.3----1002.0-------
2024-06-12 09:42 pm SW 5.7 7.7----1001.9-------
2024-06-12 09:36 pm SW 5.1 8.2----1001.7-------
2024-06-12 09:30 pm SW 5.1 8.2----1001.6- 24.3- 11.2---
2024-06-12 09:24 pmSSW 3.1 7.7----1001.4- 23.5- 11.0---
2024-06-12 09:18 pmSSW 2.6 4.1----1001.5-------
2024-06-12 09:12 pm SW 3.1 5.1----1001.5-------
2024-06-12 09:06 pm SW 3.1 6.2----1001.6-------
2024-06-12 09:00 pm SW 3.1 5.7------------
2024-06-12 08:54 pmSSW 3.6 7.2------------
2024-06-12 08:48 pm SW 2.1 7.7----1001.8-------
2024-06-12 08:42 pm SW 5.1 7.2----1001.7-------
2024-06-12 08:36 pmSSW 2.6 6.7----1001.7-------
2024-06-12 08:30 pmSSW 3.6 6.7----1001.5-------
2024-06-12 08:24 pmSSW 2.6 6.2----1001.5-------
2024-06-12 08:18 pm SW 4.1 7.2----1001.6- 25.5- 10.9---
2024-06-12 08:12 pmSSW 2.1 4.1----1001.6- 24.4- 10.8---
2024-06-12 08:06 pmSSW 3.1 6.2----1001.5- 24.5- 10.7---
2024-06-12 08:00 pmSSW 1.5 5.1----1001.6 -3.3------
2024-06-12 07:54 pmSSW 2.1 7.2----1001.8-------
2024-06-12 07:48 pm SW 3.6 7.2----1002.0-------
2024-06-12 07:42 pmSSW 2.1 6.7----1002.2-------
2024-06-12 07:36 pm SW 5.7 9.3----1002.2-------
2024-06-12 07:30 pmSSW 3.6 8.8----1002.1- 25.8- 10.9---
2024-06-12 07:24 pmSSW 3.6 8.2----1002.1- 25.4- 10.9---
2024-06-12 07:00 pmSSW 3.6 9.3----1002.6 -2.8------
2024-06-12 06:54 pm SW 6.7 9.8----1002.8-------
2024-06-12 06:48 pm SW 6.7 10.3----1002.9-------
2024-06-12 06:42 pm SW 5.1 7.7----1003.0-------
2024-06-12 06:36 pmSSW 2.6 8.8----1003.0-------
2024-06-12 06:30 pmSSW 2.6 6.7----1003.1- 24.8- 9.8---
2024-06-12 06:24 pm SW 2.6 5.1----1003.2- 23.8- 10.0---
2024-06-12 06:18 pm S 2.1 5.1----1003.2-------
2024-06-12 06:12 pmSSW 3.1 6.2----1003.3-------
2024-06-12 06:06 pmSSW 2.6 9.3----1003.6-------
2024-06-12 06:00 pm-------1003.7 -1.7------
2024-06-12 05:54 pm-------1003.9-------
2024-06-12 05:48 pm SW 2.6 6.2----1004.0-------
2024-06-12 05:42 pm SW 4.1 8.8----1004.1-------
2024-06-12 05:36 pm SW 4.6 6.7----1004.1-------
2024-06-12 05:30 pm-------1004.2- 24.3- 8.9---
2024-06-12 05:24 pm-------1004.3- 23.6- 9.1---
2024-06-12 05:18 pmSSW 2.6 5.1----1004.4- 23.7- 9.3---
2024-06-12 05:12 pmSSW 2.1 5.7----1004.6- 23.8- 9.6---
2024-06-12 05:06 pmSSW 2.6 8.8----1004.8- 23.2- 9.7---
2024-06-12 05:00 pm SW 5.1 10.8----1004.9 -1.2------
2024-06-12 04:54 pm SW 4.6 6.2----1004.9-------
2024-06-12 04:48 pmSSW 3.1 7.2----1004.8-------
2024-06-12 04:42 pmSSW 2.6 7.2----1004.8-------
2024-06-12 04:36 pmSSW 4.6 8.2----1004.8-------
2024-06-12 04:30 pmSSW 2.1 6.2----1004.9- 22.7-----
2024-06-12 04:24 pm SW 4.1 7.2----1004.9- 24.3-----
2024-06-12 04:18 pmSSW 3.1 6.2----1005.1- 23.7- 10.3---
2024-06-12 04:12 pmSSW 3.1 6.7----1005.2- 24.0- 10.2---
2024-06-12 04:06 pmSSW 2.6 5.1----1005.3- 23.3- 10.3---
2024-06-12 04:00 pm SW 2.6 7.7----1005.4 -1.0------
2024-06-12 03:54 pm SW 5.7 8.2----1005.4-------
2024-06-12 03:48 pm SW 6.2 9.8----1005.4-------
2024-06-12 03:42 pm SW 7.2 10.3----1005.5-------
2024-06-12 03:36 pm SW 3.6 8.2----1005.6-------
2024-06-12 03:30 pm SW 6.2 9.8----1005.6- 25.5- 10.2---
2024-06-12 03:24 pm SW 5.7 8.2----1005.6- 25.3- 10.1---
2024-06-12 03:18 pm SW 4.1 7.7----1005.5- 25.1- 9.9---
2024-06-12 03:12 pm SW 6.7 9.3----1005.5- 25.3- 9.7---
2024-06-12 03:06 pmSSW 3.6 7.2----1005.5- 24.1- 10.1---
2024-06-12 03:00 pm S 2.6 6.7----1005.4 -1.0 23.9- 10.0---
2024-06-12 02:54 pmSSW 3.6 6.7----1005.6- 24.6- 10.2---
2024-06-12 02:48 pm SW 6.7 10.8----1005.8-------
2024-06-12 02:42 pmSSW 2.6 6.2----1005.6-------
2024-06-12 02:36 pm SW 2.6 6.2----1005.7-------
2024-06-12 02:30 pmSSW 3.6 8.2----1005.7- 24.9- 10.1---
2024-06-12 02:24 pmSSW 3.6 7.2----1005.7- 23.9- 9.7---
2024-06-12 02:18 pmSSW 4.1 7.2----1005.7-------
2024-06-12 02:12 pmSSW 5.1 9.8----1006.0-------
2024-06-12 02:06 pm SW 3.6 8.2----1006.1-------
2024-06-12 02:00 pmSSW 4.1 8.8----1006.1 -0.8------
2024-06-12 01:54 pmSSW 4.1 8.2----1006.1-------
2024-06-12 01:48 pmSSW 2.1 6.2----1006.0-------
2024-06-12 01:42 pm SW 4.1 7.7----1006.0-------
2024-06-12 01:36 pmSSW 2.1 7.2----1006.1-------
2024-06-12 01:30 pmSSW 2.6 4.6----1006.1- 23.7- 9.6---
2024-06-12 01:24 pmSSW 2.6 6.2----1006.2- 23.7- 8.9---
2024-06-12 01:18 pm SW 5.1 7.7----1006.4-------
2024-06-12 01:12 pmSSW 2.1 7.2----1006.5-------
2024-06-12 01:06 pmSSW 3.6 6.7----1006.4-------
2024-06-12 01:00 pm-------1006.4 -0.7 23.8- 9.6---
2024-06-12 12:54 pm-------1006.5- 23.7- 9.7---
2024-06-12 12:48 pmSSW 2.1 6.7----1006.5-------
2024-06-12 12:42 pmSSW 2.6 5.1----1006.4-------
2024-06-12 12:36 pmSSW 2.6 5.7----1006.5-------
2024-06-12 12:30 pm SW 3.6 6.7----1006.6- 23.4-----
2024-06-12 12:24 pmSSW 2.6 4.6----1006.6- 23.2-----
2024-06-12 12:18 pmSSW 2.1 6.7----1006.5-------
2024-06-12 12:12 pm SW 1.5 5.7----1006.5-------
2024-06-12 12:06 pmSSW 2.6 5.7----1006.5-------
2024-06-12 12:00 pm-------1006.4 -1.0 23.4- 9.8---
2024-06-12 11:54 am-------1006.6- 23.6- 9.9---
2024-06-12 11:48 am SW 3.6 6.2----1006.6- 22.9- 9.8---
2024-06-12 11:42 amSSW 2.6 5.1----1006.7- 22.4- 10.1---
2024-06-12 11:36 am SW 2.1 3.6----1006.8- 22.1- 10.2---
2024-06-12 11:30 am SW 2.6 4.6----1006.7- 22.5- 10.5---
2024-06-12 11:24 am SW 2.1 5.7----1006.7- 22.4- 10.6---
2024-06-12 11:18 amSSW 3.6 6.2----1006.8- 21.9- 10.4---
2024-06-12 11:12 am S 2.1 4.1----1006.8- 21.3- 10.9---
2024-06-12 11:06 am S 2.6 4.1----1007.0- 21.6- 10.9---
2024-06-12 11:00 amSSW 1.5 4.1----1006.9 -0.6------
2024-06-12 10:54 am S 1.5 3.6----1007.0-------
2024-06-12 10:48 am S 2.6 3.6----1006.9-------
2024-06-12 10:42 am S 3.6 4.6----1007.0-------
2024-06-12 10:36 am S 3.6 4.1----1007.0-------
2024-06-12 10:30 am S 2.1 3.1----1007.1- 17.2- 10.5---
2024-06-12 10:24 am S 1.5 2.6----1007.2- 17.3- 10.2---
2024-06-12 10:18 am S 1.0 1.5----1007.2-------
2024-06-12 10:12 amSSE 1.0 1.5----1007.2-------
2024-06-12 10:06 amSSE 0.5 1.5----1007.2-------
2024-06-12 10:00 am S 1.0 2.1----1007.1 +0.0 17.4- 10.5---
2024-06-12 09:54 am S 1.0 1.5----1007.1- 16.4- 10.5---
2024-06-12 09:48 amSSE 1.0 2.1----1007.1-------
2024-06-12 09:42 am S 1.0 2.1----1007.2-------
2024-06-12 09:36 am S 1.5 1.5----1007.1-------
2024-06-12 09:30 am S 0.5 1.0----1007.3- 16.6- 10.6---
2024-06-12 09:24 am S 1.0 1.5----1007.3- 15.1- 10.2---
2024-06-12 09:18 amSSE 1.5 2.1----1007.3- 13.8- 9.4---
2024-06-12 09:12 am- 0.0 1.0----1007.3- 14.8- 10.0---
2024-06-12 09:06 am SE 1.0 1.0----1007.4- 13.5- 9.4---
2024-06-12 09:00 am- 0.0 1.5----1007.4 +0.0 14.8- 9.8---
2024-06-12 08:54 amESE 1.0 1.0----1007.5- 14.5- 9.4---
2024-06-12 08:48 am S 1.0 1.5----1007.3- 16.3- 10.7---
2024-06-12 08:42 am S 1.0 2.6----1007.2- 15.7- 10.5---
2024-06-12 08:36 am S 2.6 3.1----1007.1- 14.9- 10.0---
2024-06-12 08:30 am S 2.6 3.6----1007.2- 15.0- 10.1---
2024-06-12 08:24 amSSE 2.6 3.6----1007.2- 14.0- 9.2---
2024-06-12 08:18 am S 1.5 3.6----1007.3- 15.8- 10.5---
2024-06-12 08:12 am S 3.1 4.1----1007.5- 15.2- 10.2---
2024-06-12 08:06 am S 1.5 2.6----1007.6- 15.0- 10.0---
2024-06-12 08:00 am S 1.5 2.1----1007.5 +0.3 15.4- 10.1---
2024-06-12 07:54 am S 0.5 2.1----1007.5- 15.6- 10.1---
2024-06-12 07:48 amSSW 0.5 1.5----1007.4-------
2024-06-12 07:42 am S 1.0 2.1----1007.4-------
2024-06-12 07:36 am S 1.0 1.5----1007.4-------
2024-06-12 07:30 am S 1.0 1.5----1007.5- 14.3- 9.7---
2024-06-12 07:24 amSSW 0.5 2.1----1007.5- 14.6- 9.6---
2024-06-12 07:18 am- 0.0 2.1----1007.4- 15.3- 10.0---
2024-06-12 07:12 am SW 0.5 2.6----1007.4- 15.1- 10.0---
2024-06-12 07:06 am SW 1.5 2.6----1007.3- 14.9- 9.9---
2024-06-12 07:00 am W 1.0 3.1----1007.3 +0.4 14.9- 10.0---
2024-06-12 06:54 amWSW 1.5 4.1----1007.3- 14.7- 9.9---
2024-06-12 06:48 amWSW 2.1 5.1----1007.3-------
2024-06-12 06:42 amWSW 2.1 4.6----1007.4-------
2024-06-12 06:36 amWSW 1.5 4.6----1007.4-------
2024-06-12 06:30 amWSW 2.1 4.6----1007.4- 14.2- 9.7---
2024-06-12 06:24 amWSW 1.5 3.6----1007.4- 14.0- 9.6---
2024-06-12 06:18 amWSW 2.6 4.6----1007.3-------
2024-06-12 06:12 amWSW 3.1 4.6----1007.3-------
2024-06-12 06:06 amWSW 3.6 6.2----1007.2-------
2024-06-12 06:00 amWSW 3.1 5.7----1007.2 +0.7 14.3- 9.8---
2024-06-12 05:54 amWSW 3.1 5.1----1007.2- 14.3- 9.8---
2024-06-12 05:48 amWSW 3.1 5.7----1007.1-------
2024-06-12 05:42 amWSW 3.1 6.2----1007.1-------
2024-06-12 05:36 am W 2.6 5.1----1007.1-------
2024-06-12 05:30 amWSW 2.6 5.1----1007.1- 14.2- 9.8---
2024-06-12 05:24 amWSW 2.6 4.6----1007.2- 14.2- 9.7---
2024-06-12 05:18 amWSW 2.6 4.1----1007.2- 14.3- 9.8---
2024-06-12 05:12 amWSW 3.1 4.1----1007.2- 14.3- 9.8---
2024-06-12 05:06 amWSW 1.0 3.1----1007.2- 14.2- 9.8---
2024-06-12 05:00 am W 1.0 3.1----1007.2 +0.8------
2024-06-12 04:54 am W 1.0 4.6----1007.2-------
2024-06-12 04:48 am SW 2.6 4.6----1007.1-------
2024-06-12 04:42 am SW 3.1 6.2----1007.2-------
2024-06-12 04:36 amWSW 4.1 8.2----1007.2-------
2024-06-12 04:30 amWSW 2.1 5.1----1007.2- 14.3- 9.8---
2024-06-12 04:24 am SW 2.1 4.6----1007.1- 14.3- 9.8---
2024-06-12 04:18 amWSW 2.6 5.1----1007.2- 14.1- 9.7---
2024-06-12 04:12 amWSW 2.1 5.1----1007.0- 14.0- 9.8---
2024-06-12 04:06 amWSW 3.1 5.7----1006.9- 13.8- 9.7---
2024-06-12 04:00 amWSW 3.1 5.7----1006.9 +0.0------
2024-06-12 03:54 amWSW 2.6 6.2----1006.8-------
2024-06-12 03:48 amWSW 3.6 7.7----1006.9- 13.3- 9.5---
2024-06-12 03:42 am SW 3.6 6.7----1006.9- 13.4- 9.6---
2024-06-12 03:36 amWSW 3.1 5.7----1006.9- 13.3- 9.5---
2024-06-12 03:30 amWSW 3.6 7.7----1006.8- 13.2- 9.5---
2024-06-12 03:24 amWSW 4.6 8.2----1006.7- 13.2- 9.5---
2024-06-12 03:18 amWSW 4.6 7.7----1006.7- 13.1- 9.5---
2024-06-12 03:12 amWSW 5.1 7.7----1006.6- 13.0- 9.5---
2024-06-12 03:06 am SW 6.2 9.8----1006.5- 13.0- 9.4---
2024-06-12 03:00 am SW 5.7 10.8----1006.5 -0.7 13.0- 9.4---
2024-06-12 02:54 am SW 5.1 11.8----1006.5- 12.9- 9.4---
2024-06-12 02:48 am SW 6.2 9.3----1006.5- 13.0- 9.4---
2024-06-12 02:42 am SW 6.2 11.3----1006.4- 12.9- 9.4---
2024-06-12 02:36 am SW 6.7 11.3----1006.4- 12.9- 9.4---
2024-06-12 02:30 am SW 6.2 9.8----1006.4-------
2024-06-12 02:24 am SW 6.7 10.3----1006.5-------
2024-06-12 02:18 am SW 6.7 10.3----1006.5- 12.8- 9.3---
2024-06-12 02:12 am SW 6.2 9.8----1006.4- 12.8- 9.3---
2024-06-12 02:06 am SW 6.2 12.4----1006.4- 12.7- 9.2---
2024-06-12 02:00 am SW 6.7 10.3----1006.4 -1.2 12.6- 9.1---
2024-06-12 01:54 am SW 7.2 11.3----1006.4- 12.6- 9.1---
2024-06-12 01:48 am SW 7.2 11.8----1006.5-------
2024-06-12 01:42 am SW 7.7 10.8----1006.5-------
2024-06-12 01:36 am SW 6.2 10.3----1006.6-------
2024-06-12 01:30 am SW 7.2 10.8----1006.6-------
2024-06-12 01:24 am SW 6.2 9.8----1006.7-------
2024-06-12 01:18 am-------1006.7- 12.6- 8.9---
2024-06-12 01:12 am-------1006.7- 12.6- 8.9---
2024-06-12 01:06 am-------1006.8- 12.7- 9.0---
2024-06-12 01:00 am SW 6.7 10.8----1006.8 -0.7 12.6- 8.9---
2024-06-12 12:54 am SW 7.2 9.8----1006.9- 12.6- 8.9---
2024-06-12 12:48 am SW 6.7 11.3----1006.9- 12.6- 8.9---
2024-06-12 12:42 am SW 7.2 9.8----1006.9- 12.7- 9.0---
2024-06-12 12:36 am SW 6.7 10.3----1007.0- 12.8- 8.9---
2024-06-12 12:30 am SW 6.7 10.8----1007.0- 12.9- 9.0---
2024-06-12 12:24 am SW 5.7 8.8----1007.0- 12.8- 8.9---
2024-06-12 12:18 am SW 6.2 9.3----1007.1- 13.0- 8.9---
2024-06-12 12:12 am SW 5.7 9.8----1007.1- 12.9- 8.8---
2024-06-12 12:06 am SW 4.6 8.2----1007.2- 12.9- 8.9---
2024-06-12 12:00 am SW 4.1 9.3----1007.2 -0.7------
2024-06-11 11:54 pm SW 4.1 8.2----1007.3-------
2024-06-11 11:48 pm SW 5.1 9.3----1007.3- 12.7- 8.7---
2024-06-11 11:42 pm SW 4.1 9.3----1007.4- 12.7- 8.7---
2024-06-11 11:36 pmSSW 3.6 7.7----1007.5- 12.7- 8.7---
2024-06-11 11:30 pm SW 4.1 9.8----1007.4-------
2024-06-11 11:24 pm SW 5.1 7.7----1007.4-------
2024-06-11 11:18 pm SW 4.1 8.8----1007.4- 12.7- 8.6---
2024-06-11 11:12 pm SW 3.1 7.2----1007.5- 12.6- 8.6---
2024-06-11 11:06 pmSSW 2.1 5.1----1007.6- 12.5- 8.5---
2024-06-11 11:00 pmSSW 1.5 5.1----1007.6 -0.9 12.4- 8.5---
2024-06-11 10:54 pm S 2.1 4.6----1007.6- 12.4- 8.6---